Regional Weather Roundup
Issued by NWS Newport/Morehead, NC

Current Version | Previous Version | Text Only | Print | Product List | Glossary On
Versions: 1 2 3 4 5 6 7 8 9 10 11 12 13 14 15 16 17 18 19 20 21 22 23 24 25 26 27 28 29 30 31 32 33 34 35 36 37 38 39 40 41 42 43 44 45 46 47 48 49 50
000
ASUS42 KMHX 281413
RWRMHX
WEATHER ROUNDUP FOR EASTERN NORTH CAROLINA
NATIONAL WEATHER SERVICE NEWPORT/MOREHEAD CITY NC
1000 AM EDT FRI APR 28 2017

NOTE: "FAIR" INDICATES FEW OR NO CLOUDS BELOW 12,000 FEET
WITH NO SIGNIFICANT WEATHER AND/OR OBSTRUCTIONS TO VISIBILITY

NCZ015>017-031-032-045>047-102-103-281500-
NORTH COAST

CITY           SKY/WX    TMP DP  RH WIND       PRES   REMARKS
EDENTON        CLOUDY    78  72  81 SW7       30.07R
ELIZABETH CITY PTSUNNY   78  74  87 SW13G22   30.06R
KITTY HAWK     CLOUDY    77  70  79 SW10G16   30.06S
MANTEO         PTSUNNY   77  70  79 SW20      30.08R

$$

NCZ045>047-081-094-103-104-281500-
CENTRAL COAST

CITY           SKY/WX    TMP DP  RH WIND       PRES   REMARKS
FRISCO         CLOUDY    76  70  82 SW10      30.10R HAZE

$$

NCZ095-097-098-100-101-281500-
SOUTHERN COAST

CITY           SKY/WX    TMP DP  RH WIND       PRES   REMARKS
BEAUFORT       CLOUDY    77  74  90 S14       30.10R
CEDAR ISLAND   NOT AVBL
JACKSONVILLE   CLOUDY    79  74  84 S13G18    30.07S
PINEY ISLAND   CLOUDY   N/A N/A N/A SW18G25   30.09R
WILMINGTON     CLOUDY    79  73  82 S13       30.09R


$$

NCZ011>013-027>030-043-044-078>080-089-090>093-098-281500-
COASTAL PLAIN

CITY           SKY/WX    TMP DP  RH WIND       PRES   REMARKS
AHOSKIE          N/A     76  71  83 CALM      30.06R
CLINTON        PTSUNNY   78  73  82 SW6       30.07S
ELIZABETHTOWN  MOSUNNY   78  71  77 SW9       30.07S
GOLDSBORO      PTSUNNY   79  75  89 SW10      30.05S
GREENVILLE     CLOUDY    79  73  83 SW9G17    30.08R
HAVELOCK       NOT AVBL
KENANSVILLE    CLOUDY    79  72  78 SW5       30.07R
KINSTON        CLOUDY    81  72  74 SW10G18   30.07R
NEW BERN       CLOUDY    79  73  82 SW12G22   30.08S
RICHLANDS      CLOUDY    80  73  79 S15G22    30.08S
ROCKY MOUNT    CLOUDY    76  71  85 SW9       30.06S
WASHINGTON     PTSUNNY   77  72  82 SW10      30.07R
WHITEVILLE     CLOUDY    79  72  78 S8        30.08R

$$

AMZ130-135-150-152-154-156-158-170-250-252-270-ANZ085-086-088-633-658-670-281500-
MARINE OBSERVATIONS

STATION/POSITION TIME  TEMP    WIND        PRES    WAVE   SWELL
                       AIR SEA DIR/SP/G            HT/PER HT/PER
                 (UTC) (F)     (DEG/KT/KT) (MB)    (FT/S) (FT/S)
CHESAPEAKE LIGHT NOT AVBL
64 E VA BEACH    1350   61 56  200/ 10/ 12 1018.9    5/ 8   5/ 8
DUCK             1348   75 56  210/ 11/ 15 1017.5
2 E DUCK         1400      58                N/A     3/ 8   2/11
OREGON INLET     1342   73 71  200/ 13/ 16 1018.6
13E OREGON INLT  1348      62                N/A     5/ 6   3/ 8
HATTERAS CG      1348   76 70  200/ 11/ 15 1019.0
DIAMOND BUOY     1350   77 76  210/ 19/ 23 1018.9    5/ 6   3/ 8
CAPE LOOKOUT     1400   77     190/ 11/ 15 1019.0
BEAUFORT LAB     1348   73 69  190/ 10/ 11 1018.3
30 SE NEW RVR IN 1308   73     210/ 10/ 14 1019.3
30 SE NEW RVR IN 1343      72                N/A     5/ 8   2/12
27 SE WRIGHTSVLE 1308   74 72  190/ 12/ 16 1018.6
5 SE WRIGHTSVLE  1308   73 70  190/ 10/ 16 1018.4
225 S CAPE HAT   1350   75 75  180/ 12/ 14 1021.9    4/ 7   3/ 7
41 SE CHARLESTON 1350   75 74  170/ 10/ 12 1018.9    4/ 6   3/ 6

$$




USA.gov is the U.S. government's official web portal to all federal, state and local government web resources and services.